This is the latest recevied weather packets stored in our database for station/object LEMD. If no packets are shown the sender has not sent any weather packets the latest 10 day(s).
| Time | Temp. | Humidity | Pressure | Rain* | Wind** | Luminosity | Snow |
|---|---|---|---|---|---|---|---|
| 1777600804 | 12.22° C | 76% | 1018 hPa | - | - | - | - |
| 1777599904 | 12.22° C | 76% | 1018 hPa | - | - | - | - |
| 1777599004 | 12.78° C | 71% | 1018 hPa | - | - | - | - |
| 1777597204 | 12.78° C | 71% | 1018 hPa | - | - | - | - |
| 1777596304 | 12.78° C | 71% | 1018 hPa | - | - | - | - |
| 1777595405 | 12.78° C | 71% | 1018 hPa | - | - | - | - |
| 1777593604 | 13.89° C | 67% | 1018 hPa | - | - | - | - |
| 1777592704 | 13.89° C | 67% | 1018 hPa | - | - | - | - |
| 1777590904 | 12.78° C | 71% | 1018 hPa | - | - | - | - |
| 1777590004 | 13.89° C | 67% | 1018 hPa | - | - | - | - |
| 1777584604 | 16.11° C | 55% | 1017 hPa | - | - | - | - |
| 1777583703 | 16.11° C | 55% | 1017 hPa | - | - | - | - |
| 1777579205 | 17.78° C | 48% | 1016 hPa | - | - | - | - |
| 1777578303 | 17.78° C | 48% | 1016 hPa | - | - | - | - |
| 1777577405 | 20° C | 42% | 1016 hPa | - | - | - | - |
| 1777576504 | 20° C | 42% | 1016 hPa | - | - | - | - |
| 1777575604 | 20° C | 42% | 1016 hPa | - | - | - | - |
| 1777574704 | 20° C | 42% | 1016 hPa | - | - | - | - |
| 1777571104 | 22.22° C | 35% | 1016 hPa | - | - | - | - |
| 1777570204 | 22.22° C | 35% | 1016 hPa | - | - | - | - |
| 1777567504 | 21.11° C | 37% | 1016 hPa | - | - | - | - |
| 1777566604 | 21.11° C | 35% | 1016 hPa | - | - | - | - |
| 1777565704 | 21.11° C | 35% | 1016 hPa | - | - | - | - |
| 1777563904 | 21.11° C | 37% | 1016 hPa | - | - | - | - |
| 1777559404 | 21.11° C | 40% | 1017 hPa | - | - | - | - |
* Rain since midnight (hover to see other rain measurements)
** Current wind speed in m/s (hover to see current wind gust speed)